Molokai, HI

4:14 PM HST on September 25, 2017 (GMT -1000)
Molokai

Weather History for PHMK - May, 2013

Change the Weather History Date:

Sunday, May 5, 2013

  Actual Average Record
Temperature  
Mean Temperature 70 °F -  
Max Temperature 75 °F 80 °F 86 °F (1985)
Min Temperature 66 °F 66 °F 61 °F (1989)
Cooling Degree Days 6    
Growing Degree Days 20 (Base 50)    
Moisture  
Dew Point 66 °F    
Average Humidity 90    
Maximum Humidity 100    
Minimum Humidity 76    
Precipitation  
Precipitation 0.19 in - - ()
Sea Level Pressure  
Sea Level Pressure 29.94 in    
Wind  
Wind Speed 7 mph (SE)    
Max Wind Speed 18 mph    
Max Gust Speed 24 mph    
Visibility 8 miles    
Events Rain    
Averages and records for this station are not official NWS values.
T = Trace of Precipitation, MM = Missing Value Source: NWS Daily Summary

Daily Weather History Graph

Daily Weather History Graph

Search for Another Location

Airport or City:

Trip Planner

Search our weather history database for the weather conditions in past years. The results will help you decide how hot, cold, wet, or windy it might be!

Date:

Astronomy

May. 05, 2013 Rise Set
Actual Time 5:55 AM HST 6:55 PM HST
Civil Twilight 5:31 AM HST 7:18 PM HST
Nautical Twilight 5:04 AM HST 7:46 PM HST
Astronomical Twilight 4:35 AM HST 8:14 PM HST
Moon 3:01 AM HST (5/5) 3:31 PM HST (5/5)
Length of Visible Light 13h 47m
Length of Day
13h 00m
Waning Crescent, 16% of the Moon is Illuminated
May 5
Waning Crescent
May 9
New
May 17
First Quarter
May 24
Full
May 31
Last Quarter

Hourly Weather History & Observations

Time (HST) Temp. Dew Point Humidity Pressure Visibility Wind Dir Wind Speed Gust Speed Precip Events Conditions
12:54 AM 68.0 °F 66.0 °F 93% 29.96 in 10.0 mi Calm Calm - N/A   Overcast
1:54 AM 68.0 °F 64.9 °F 90% 29.96 in 10.0 mi East 3.5 mph - N/A   Overcast
2:33 AM 69.8 °F 64.4 °F 83% 29.93 in 10.0 mi East 5.8 mph - N/A   Overcast
2:42 AM 68.0 °F 64.4 °F 88% 29.93 in 10.0 mi East 5.8 mph - N/A   Overcast
2:54 AM 68.0 °F 64.9 °F 90% 29.94 in 10.0 mi East 5.8 mph - N/A   Overcast
3:01 AM 68.0 °F 64.4 °F 88% 29.92 in 10.0 mi East 4.6 mph - N/A   Mostly Cloudy
3:19 AM 68.0 °F 64.4 °F 88% 29.92 in 10.0 mi Calm Calm - N/A   Mostly Cloudy
3:54 AM 69.1 °F 64.9 °F 87% 29.93 in 10.0 mi Calm Calm - N/A   Overcast
4:34 AM 66.2 °F 66.2 °F 100% 29.92 in 10.0 mi East 4.6 mph - N/A   Overcast
4:54 AM 66.9 °F 66.0 °F 97% 29.93 in 10.0 mi East 5.8 mph - N/A   Overcast
5:54 AM 66.9 °F 66.0 °F 97% 29.94 in 10.0 mi East 9.2 mph - N/A   Scattered Clouds
6:20 AM 66.2 °F 64.4 °F 94% 29.94 in 10.0 mi East 9.2 mph - N/A   Mostly Cloudy
6:45 AM 66.2 °F 64.4 °F 94% 29.94 in 10.0 mi East 8.1 mph - 0.00 in Rain Light Rain
6:54 AM 66.9 °F 66.0 °F 97% 29.96 in 8.0 mi East 6.9 mph - 0.00 in Rain Rain
7:33 AM 68.0 °F 66.2 °F 94% 29.95 in 10.0 mi SE 5.8 mph - 0.01 in   Mostly Cloudy
7:54 AM 69.1 °F 68.0 °F 96% 29.97 in 10.0 mi ESE 6.9 mph - 0.01 in   Mostly Cloudy
8:54 AM 71.1 °F 66.9 °F 87% 29.98 in 10.0 mi SE 11.5 mph - 0.00 in   Scattered Clouds
9:54 AM 72.0 °F 66.0 °F 81% 29.98 in 10.0 mi SSE 12.7 mph - 0.00 in   Mostly Cloudy
10:01 AM 73.4 °F 66.2 °F 78% 29.96 in 10.0 mi SSE 10.4 mph - N/A   Mostly Cloudy
10:54 AM 73.9 °F 66.9 °F 79% 29.97 in 10.0 mi South 16.1 mph - N/A   Mostly Cloudy
11:54 AM 75.0 °F 66.9 °F 76% 29.94 in 10.0 mi SSE 17.3 mph 23.0 mph 0.00 in   Mostly Cloudy
12:54 PM 72.0 °F 66.9 °F 84% 29.94 in 10.0 mi SSW 12.7 mph 20.7 mph N/A   Mostly Cloudy
1:01 PM 73.4 °F 68.0 °F 83% 29.92 in 9.0 mi SSW 15.0 mph - 0.00 in Rain Light Rain
1:54 PM 72.0 °F 69.1 °F 91% 29.92 in 6.0 mi SSW 11.5 mph - 0.01 in Rain Rain
2:54 PM 69.1 °F 68.0 °F 96% 29.91 in 10.0 mi South 10.4 mph - 0.00 in   Mostly Cloudy
3:02 PM 68.0 °F 68.0 °F 100% 29.91 in 7.0 mi South 12.7 mph 19.6 mph N/A   Overcast
3:19 PM - - N/A% 29.91 in 4.0 mi SSE 11.5 mph - 0.01 in Rain Rain
3:37 PM 69.8 °F 66.2 °F 88% 29.90 in 5.0 mi SE 9.2 mph - 0.02 in Rain Light Rain
3:54 PM 69.8 °F 66.9 °F 91% 29.91 in 3.0 mi South 17.3 mph 23.0 mph 0.07 in Rain Heavy Rain
4:01 PM 69.8 °F 68.0 °F 94% 29.90 in 3.0 mi SSE 18.4 mph 24.2 mph 0.03 in Rain Rain
4:54 PM 69.8 °F 68.0 °F 94% 29.91 in 4.0 mi SE 15.0 mph 21.9 mph 0.06 in Rain Light Rain
5:54 PM 69.8 °F 68.0 °F 94% 29.91 in 5.0 mi ESE 11.5 mph - 0.01 in   Mostly Cloudy
6:01 PM 68.0 °F 66.2 °F 94% 29.90 in 10.0 mi SE 9.2 mph - N/A   Mostly Cloudy
6:54 PM 68.0 °F 66.0 °F 93% 29.93 in 10.0 mi SE 6.9 mph - N/A   Mostly Cloudy
7:07 PM - - N/A% 29.92 in 6.0 mi SSE 6.9 mph - 0.00 in Rain Light Rain
7:19 PM - - N/A% 29.93 in 5.0 mi South 11.5 mph 18.4 mph 0.02 in Rain Light Rain
7:42 PM - - N/A% 29.93 in 10.0 mi SE 10.4 mph - 0.03 in Rain Light Rain
7:51 PM - - N/A% 29.94 in 9.0 mi South 5.8 mph - 0.03 in   Overcast
7:54 PM - - N/A% 29.94 in 9.0 mi South 6.9 mph - 0.03 in   Overcast
8:10 PM - - N/A% 29.94 in 10.0 mi South 11.5 mph - N/A   Mostly Cloudy
8:30 PM - - N/A% 29.95 in 9.0 mi South 13.8 mph - N/A   Overcast
8:54 PM - - N/A% 29.96 in 5.0 mi SSE 6.9 mph - 0.00 in Rain Light Rain
9:02 PM - - N/A% 29.96 in 4.0 mi ESE 6.9 mph - 0.00 in Rain Light Rain
9:12 PM - - N/A% 29.96 in 4.0 mi ESE 6.9 mph - 0.00 in Rain Light Rain
9:54 PM - - N/A% 29.95 in 9.0 mi ESE 10.4 mph - 0.00 in   Overcast
10:54 PM - - N/A% 29.95 in 10.0 mi South 11.5 mph - N/A   Scattered Clouds
11:09 PM - - N/A% 29.96 in 7.0 mi SSE 8.1 mph - 0.00 in Rain Light Rain
11:22 PM - - N/A% 29.96 in 8.0 mi SSE 5.8 mph - 0.00 in   Overcast
11:44 PM - - N/A% 29.95 in 8.0 mi SSE 9.2 mph - 0.00 in   Overcast
11:54 PM - - N/A% 29.95 in 7.0 mi SSE 9.2 mph - 0.00 in Rain Light Rain
11:59 PM - - N/A% 29.95 in 6.0 mi SSE 8.1 mph - 0.00 in Rain Light Rain